Time,TemperatureF,DewpointF,PressureIn,WindDirection,WindDirectionDegrees,WindSpeedMPH,WindSpeedGustMPH,Humidity,HourlyPrecipIn,Conditions,Clouds,dailyrainin,SoftwareType,DateUTC
2013-07-05 00:02:00,68.0,44.0,29.82,WSW,246,1.0,3.0,42,0.00,,,0.00,,2013-07-05 07:02:00,
2013-07-05 00:12:00,68.0,44.0,29.82,WSW,245,1.0,4.0,42,0.00,,,0.00,,2013-07-05 07:12:00,
2013-07-05 00:23:00,67.0,43.0,29.82,WSW,239,2.0,5.0,42,0.00,,,0.00,,2013-07-05 07:23:00,
2013-07-05 00:33:00,67.0,44.0,29.82,WNW,283,1.0,4.0,44,0.00,,,0.00,,2013-07-05 07:33:00,
2013-07-05 00:53:00,67.0,43.0,29.82,WSW,237,2.0,6.0,42,0.00,,,0.00,,2013-07-05 07:53:00,
2013-07-05 01:02:00,67.0,43.0,29.82,South,171,0.0,5.0,42,0.00,,,0.00,,2013-07-05 08:02:00,
2013-07-05 01:12:00,67.0,43.0,29.82,WSW,251,0.0,5.0,42,0.00,,,0.00,,2013-07-05 08:12:00,
2013-07-05 01:22:00,67.0,43.0,29.82,WNW,292,1.0,4.0,42,0.00,,,0.00,,2013-07-05 08:22:00,
2013-07-05 01:33:00,67.0,43.0,29.82,SE,138,1.0,5.0,42,0.00,,,0.00,,2013-07-05 08:33:00,
2013-07-05 01:43:00,67.0,43.0,29.82,SW,236,1.0,4.0,41,0.00,,,0.00,,2013-07-05 08:43:00,
2013-07-05 01:53:00,67.0,41.0,29.82,WSW,237,1.0,3.0,39,0.00,,,0.00,,2013-07-05 08:53:00,
2013-07-05 02:03:00,67.0,42.0,29.83,NW,305,1.0,3.0,40,0.00,,,0.00,,2013-07-05 09:03:00,
2013-07-05 02:12:00,66.0,40.0,29.83,NW,305,0.0,2.0,39,0.00,,,0.00,,2013-07-05 09:12:00,
2013-07-05 02:23:00,67.0,41.0,29.82,NW,309,5.0,8.0,38,0.00,,,0.00,,2013-07-05 09:23:00,
2013-07-05 02:34:00,67.0,41.0,29.82,NW,306,7.0,10.0,39,0.00,,,0.00,,2013-07-05 09:34:00,
2013-07-05 02:53:00,67.0,41.0,29.82,North,5,4.0,9.0,39,0.00,,,0.00,,2013-07-05 09:53:00,
2013-07-05 03:12:00,66.0,41.0,29.82,NW,319,9.0,12.0,40,0.00,,,0.00,,2013-07-05 10:12:00,
2013-07-05 03:23:00,66.0,40.0,29.82,NW,314,7.0,12.0,39,0.00,,,0.00,,2013-07-05 10:23:00,
2013-07-05 03:34:00,66.0,41.0,29.82,NNW,339,6.0,11.0,40,0.00,,,0.00,,2013-07-05 10:34:00,
2013-07-05 04:02:00,65.0,41.0,29.82,North,360,7.0,10.0,41,0.00,,,0.00,,2013-07-05 11:02:00,
2013-07-05 04:22:00,65.0,41.0,29.83,NNE,17,4.0,9.0,41,0.00,,,0.00,,2013-07-05 11:22:00,
2013-07-05 04:34:00,65.0,41.0,29.83,NNW,340,8.0,12.0,42,0.00,,,0.00,,2013-07-05 11:34:00,
2013-07-05 04:44:00,65.0,42.0,29.83,East,92,2.0,11.0,43,0.00,,,0.00,,2013-07-05 11:44:00,
2013-07-05 04:53:00,64.0,41.0,29.83,NW,319,5.0,8.0,43,0.00,,,0.00,,2013-07-05 11:53:00,
2013-07-05 05:03:00,63.0,41.0,29.83,NNW,337,4.0,8.0,44,0.00,,,0.00,,2013-07-05 12:03:00,
2013-07-05 05:12:00,62.0,40.0,29.84,North,5,0.0,7.0,45,0.00,,,0.00,,2013-07-05 12:12:00,
2013-07-05 05:23:00,62.0,42.0,29.83,SSE,156,2.0,5.0,47,0.00,,,0.00,,2013-07-05 12:23:00,
2013-07-05 05:33:00,60.0,41.0,29.84,ESE,118,0.0,3.0,49,0.00,,,0.00,,2013-07-05 12:33:00,
2013-07-05 05:43:00,62.0,41.0,29.84,North,355,5.0,10.0,46,0.00,,,0.00,,2013-07-05 12:43:00,
2013-07-05 05:53:00,59.0,42.0,29.84,SE,133,1.0,6.0,54,0.00,,,0.00,,2013-07-05 12:53:00,
2013-07-05 06:02:00,60.0,42.0,29.84,East,86,2.0,6.0,51,0.00,,,0.00,,2013-07-05 13:02:00,
2013-07-05 06:12:00,60.0,43.0,29.85,ESE,111,0.0,6.0,53,0.00,,,0.00,,2013-07-05 13:12:00,
2013-07-05 06:23:00,59.0,41.0,29.85,NNE,29,1.0,2.0,52,0.00,,,0.00,,2013-07-05 13:23:00,
2013-07-05 06:35:00,59.0,43.0,29.85,NE,43,0.0,0.0,55,0.00,,,0.00,,2013-07-05 13:35:00,
2013-07-05 06:53:00,58.0,43.0,29.85,NE,34,0.0,0.0,57,0.00,,,0.00,,2013-07-05 13:53:00,
2013-07-05 07:03:00,58.0,44.0,29.85,NE,34,0.0,1.0,60,0.00,,,0.00,,2013-07-05 14:03:00,
2013-07-05 07:12:00,58.0,42.0,29.86,NE,34,0.0,0.0,56,0.00,,,0.00,,2013-07-05 14:12:00,
2013-07-05 07:34:00,61.0,42.0,29.86,NE,34,0.0,1.0,50,0.00,,,0.00,,2013-07-05 14:34:00,
2013-07-05 07:44:00,63.0,42.0,29.86,NE,34,0.0,2.0,46,0.00,,,0.00,,2013-07-05 14:44:00,
2013-07-05 07:54:00,65.0,43.0,29.86,NE,34,0.0,1.0,44,0.00,,,0.00,,2013-07-05 14:54:00,
2013-07-05 08:02:00,66.0,44.0,29.86,NE,41,0.0,2.0,45,0.00,,,0.00,,2013-07-05 15:02:00,
2013-07-05 08:12:00,68.0,45.0,29.86,NE,43,0.0,2.0,43,0.00,,,0.00,,2013-07-05 15:12:00,
2013-07-05 08:22:00,69.0,45.0,29.86,NW,324,3.0,4.0,42,0.00,,,0.00,,2013-07-05 15:22:00,
2013-07-05 08:33:00,69.0,45.0,29.85,WNW,302,3.0,5.0,42,0.00,,,0.00,,2013-07-05 15:33:00,
2013-07-05 08:43:00,70.0,43.0,29.85,NNE,17,2.0,4.0,37,0.00,,,0.00,,2013-07-05 15:43:00,
2013-07-05 08:53:00,71.0,44.0,29.85,WNW,286,3.0,6.0,38,0.00,,,0.00,,2013-07-05 15:53:00,
2013-07-05 09:22:00,74.0,45.0,29.84,West,280,1.0,6.0,36,0.00,,,0.00,,2013-07-05 16:22:00,
2013-07-05 09:44:00,76.0,46.0,29.84,SW,223,1.0,5.0,34,0.00,,,0.00,,2013-07-05 16:44:00,
2013-07-05 09:53:00,77.0,46.0,29.84,WNW,303,2.0,5.0,34,0.00,,,0.00,,2013-07-05 16:53:00,
2013-07-05 10:01:00,77.0,45.0,29.83,SE,145,3.0,8.0,32,0.00,,,0.00,,2013-07-05 17:01:00,
2013-07-05 10:11:00,77.0,45.0,29.84,SSE,157,1.0,5.0,32,0.00,,,0.00,,2013-07-05 17:11:00,
2013-07-05 10:22:00,77.0,46.0,29.83,ESE,123,4.0,8.0,34,0.00,,,0.00,,2013-07-05 17:22:00,
2013-07-05 10:32:00,78.0,45.0,29.83,WSW,245,3.0,9.0,31,0.00,,,0.00,,2013-07-05 17:32:00,
2013-07-05 10:42:00,78.0,45.0,29.83,SW,220,2.0,9.0,31,0.00,,,0.00,,2013-07-05 17:42:00,
2013-07-05 10:53:00,78.0,47.0,29.83,SW,236,4.0,12.0,33,0.00,,,0.00,,2013-07-05 17:53:00,
2013-07-05 11:01:00,79.0,47.0,29.83,South,172,2.0,7.0,32,0.00,,,0.00,,2013-07-05 18:01:00,
2013-07-05 11:11:00,79.0,45.0,29.83,WSW,255,2.0,10.0,30,0.00,,,0.00,,2013-07-05 18:11:00,
2013-07-05 11:33:00,80.0,44.0,29.82,SSE,162,2.0,6.0,28,0.00,,,0.00,,2013-07-05 18:33:00,
2013-07-05 11:42:00,80.0,42.0,29.82,ENE,77,3.0,6.0,26,0.00,,,0.00,,2013-07-05 18:42:00,
2013-07-05 11:53:00,80.0,44.0,29.81,WSW,241,2.0,8.0,28,0.00,,,0.00,,2013-07-05 18:53:00,
2013-07-05 12:01:00,80.0,43.0,29.81,South,184,4.0,6.0,27,0.00,,,0.00,,2013-07-05 19:01:00,
2013-07-05 12:12:00,81.0,44.0,29.81,West,281,3.0,5.0,27,0.00,,,0.00,,2013-07-05 19:12:00,
2013-07-05 12:22:00,81.0,47.0,29.81,WNW,298,4.0,9.0,31,0.00,,,0.00,,2013-07-05 19:22:00,
2013-07-05 12:33:00,81.0,45.0,29.80,SSE,151,6.0,8.0,28,0.00,,,0.00,,2013-07-05 19:33:00,
2013-07-05 12:42:00,82.0,45.0,29.80,SSE,155,4.0,8.0,27,0.00,,,0.00,,2013-07-05 19:42:00,
2013-07-05 12:52:00,82.0,46.0,29.80,WNW,295,2.0,8.0,28,0.00,,,0.00,,2013-07-05 19:52:00,
2013-07-05 13:01:00,83.0,46.0,29.80,SW,220,3.0,8.0,27,0.00,,,0.00,,2013-07-05 20:01:00,
2013-07-05 13:11:00,83.0,45.0,29.80,SSE,165,3.0,7.0,26,0.00,,,0.00,,2013-07-05 20:11:00,
2013-07-05 13:53:00,84.0,46.0,29.78,SSE,167,2.0,7.0,27,0.00,,,0.00,,2013-07-05 20:53:00,
2013-07-05 14:01:00,85.0,47.0,29.78,West,277,2.0,6.0,27,0.00,,,0.00,,2013-07-05 21:01:00,
2013-07-05 14:11:00,85.0,44.0,29.78,SW,232,3.0,5.0,24,0.00,,,0.00,,2013-07-05 21:11:00,
2013-07-05 14:34:00,85.0,46.0,29.78,SE,131,3.0,6.0,26,0.00,,,0.00,,2013-07-05 21:34:00,
2013-07-05 14:42:00,85.0,45.0,29.77,SW,232,4.0,8.0,25,0.00,,,0.00,,2013-07-05 21:42:00,
2013-07-05 14:53:00,84.0,44.0,29.76,ESE,113,6.0,15.0,25,0.00,,,0.00,,2013-07-05 21:53:00,
2013-07-05 15:01:00,85.0,43.0,29.76,West,263,3.0,10.0,23,0.00,,,0.00,,2013-07-05 22:01:00,
2013-07-05 15:11:00,85.0,44.0,29.76,SW,219,4.0,11.0,24,0.00,,,0.00,,2013-07-05 22:11:00,
2013-07-05 15:33:00,86.0,44.0,29.76,East,94,3.0,11.0,23,0.00,,,0.00,,2013-07-05 22:33:00,
2013-07-05 15:43:00,86.0,47.0,29.75,WSW,250,3.0,10.0,26,0.00,,,0.00,,2013-07-05 22:43:00,
2013-07-05 15:53:00,87.0,48.0,29.75,WSW,248,3.0,9.0,26,0.00,,,0.00,,2013-07-05 22:53:00,
2013-07-05 16:02:00,87.0,47.0,29.75,West,263,3.0,7.0,25,0.00,,,0.00,,2013-07-05 23:02:00,
2013-07-05 16:11:00,87.0,45.0,29.75,West,280,4.0,8.0,23,0.00,,,0.00,,2013-07-05 23:11:00,
2013-07-05 16:42:00,87.0,46.0,29.74,WNW,283,2.0,6.0,24,0.00,,,0.00,,2013-07-05 23:42:00,
2013-07-05 16:53:00,86.0,45.0,29.74,WSW,248,2.0,8.0,24,0.00,,,0.00,,2013-07-05 23:53:00,
2013-07-05 17:01:00,87.0,44.0,29.74,ENE,62,3.0,9.0,22,0.00,,,0.00,,2013-07-06 00:01:00,
2013-07-05 17:11:00,86.0,45.0,29.74,WNW,298,2.0,11.0,24,0.00,,,0.00,,2013-07-06 00:11:00,
2013-07-05 17:42:00,86.0,47.0,29.74,West,277,3.0,8.0,26,0.00,,,0.00,,2013-07-06 00:42:00,
2013-07-05 17:53:00,86.0,47.0,29.73,WNW,294,2.0,8.0,26,0.00,,,0.00,,2013-07-06 00:53:00,
2013-07-05 18:01:00,86.0,47.0,29.74,WNW,286,2.0,7.0,26,0.00,,,0.00,,2013-07-06 01:01:00,
2013-07-05 18:11:00,86.0,45.0,29.73,WNW,291,3.0,7.0,24,0.00,,,0.00,,2013-07-06 01:11:00,
2013-07-05 18:22:00,85.0,45.0,29.73,WSW,244,2.0,7.0,25,0.00,,,0.00,,2013-07-06 01:22:00,
2013-07-05 18:33:00,85.0,46.0,29.73,SSW,205,3.0,8.0,26,0.00,,,0.00,,2013-07-06 01:33:00,
2013-07-05 18:42:00,85.0,44.0,29.74,WSW,242,4.0,9.0,24,0.00,,,0.00,,2013-07-06 01:42:00,
2013-07-05 18:52:00,85.0,46.0,29.74,WSW,244,1.0,9.0,26,0.00,,,0.00,,2013-07-06 01:52:00,
2013-07-05 19:02:00,84.0,47.0,29.75,WNW,288,2.0,8.0,28,0.00,,,0.00,,2013-07-06 02:02:00,
2013-07-05 19:33:00,81.0,46.0,29.75,WNW,289,5.0,12.0,29,0.00,,,0.00,,2013-07-06 02:33:00,
2013-07-05 19:43:00,81.0,47.0,29.75,WNW,288,4.0,11.0,30,0.00,,,0.00,,2013-07-06 02:43:00,
2013-07-05 19:52:00,80.0,46.0,29.76,WNW,295,2.0,11.0,30,0.00,,,0.00,,2013-07-06 02:52:00,
2013-07-05 20:02:00,79.0,46.0,29.76,WNW,292,4.0,10.0,31,0.00,,,0.00,,2013-07-06 03:02:00,
2013-07-05 20:11:00,79.0,47.0,29.76,WNW,301,1.0,7.0,32,0.00,,,0.00,,2013-07-06 03:11:00,
2013-07-05 20:22:00,78.0,45.0,29.77,WNW,302,2.0,6.0,31,0.00,,,0.00,,2013-07-06 03:22:00,
2013-07-05 20:34:00,77.0,44.0,29.77,SSW,212,2.0,5.0,31,0.00,,,0.00,,2013-07-06 03:34:00,
2013-07-05 20:43:00,76.0,45.0,29.78,SE,145,3.0,10.0,33,0.00,,,0.00,,2013-07-06 03:43:00,
2013-07-05 20:52:00,75.0,45.0,29.78,West,280,4.0,9.0,35,0.00,,,0.00,,2013-07-06 03:52:00,
2013-07-05 21:01:00,75.0,45.0,29.78,NW,304,5.0,8.0,34,0.00,,,0.00,,2013-07-06 04:01:00,
2013-07-05 21:12:00,74.0,45.0,29.79,West,274,7.0,11.0,35,0.00,,,0.00,,2013-07-06 04:12:00,
2013-07-05 21:22:00,74.0,45.0,29.79,WNW,293,6.0,12.0,36,0.00,,,0.00,,2013-07-06 04:22:00,
2013-07-05 21:33:00,73.0,44.0,29.80,South,191,3.0,7.0,35,0.00,,,0.00,,2013-07-06 04:33:00,
2013-07-05 21:43:00,73.0,44.0,29.80,SE,143,1.0,4.0,35,0.00,,,0.00,,2013-07-06 04:43:00,
2013-07-05 21:53:00,73.0,43.0,29.80,NNW,331,3.0,7.0,34,0.00,,,0.00,,2013-07-06 04:53:00,
2013-07-05 22:02:00,74.0,43.0,29.81,NNW,329,10.0,15.0,33,0.00,,,0.00,,2013-07-06 05:02:00,
2013-07-05 22:11:00,74.0,43.0,29.81,North,355,8.0,15.0,33,0.00,,,0.00,,2013-07-06 05:11:00,
2013-07-05 22:22:00,74.0,44.0,29.82,NNE,19,6.0,10.0,34,0.00,,,0.00,,2013-07-06 05:22:00,
2013-07-05 22:33:00,74.0,44.0,29.82,NNW,334,9.0,14.0,34,0.00,,,0.00,,2013-07-06 05:33:00,
2013-07-05 22:42:00,74.0,44.0,29.82,NNW,334,9.0,14.0,34,0.00,,,0.00,,2013-07-06 05:42:00,
2013-07-05 22:52:00,74.0,44.0,29.82,NNW,334,9.0,14.0,34,0.00,,,0.00,,2013-07-06 05:52:00,
2013-07-05 23:01:00,74.0,44.0,29.82,NNW,334,9.0,14.0,34,0.00,,,0.00,,2013-07-06 06:01:00,
2013-07-05 23:12:00,74.0,44.0,29.82,NNW,334,9.0,14.0,34,0.00,,,0.00,,2013-07-06 06:12:00,